User: anonymous   Login
Location: Caltech
(34.1382°N, 118.1253°W)
Time: 23:37:34
(UTC-08:00)
Language:

Saudisat 1A - Orbit

View from above orbital plane
View from above orbital plane
View from above satellite
View from above satellite

Ground track
Ground track

The orbit data is extracted from the following two-line orbital elements,

1 26546U 00057B   18054.60960222 +.00000022 +00000-0 +18056-4 0  9998
2 26546 064.5533 268.2780 0005764 261.9113 098.1343 14.90684907944114
Epoch (UTC): 23 February 2018 14:37:49
Eccentricity: 0.0005764
inclination: 64.5533°
perigee height: 592 km
apogee height: 600 km
right ascension of ascending node: 268.2780°
argument of perigee: 261.9113°
revolutions per day: 14.90684907
mean anomaly at epoch: 98.1343°
orbit number at epoch: 94411

The dashed part of the orbit path shows where the satellite is in the earth's shadow,  

DLR